,,,PA_Meas_PMT16A,,PR_Meas_QMR101_102,,RH_Meas_QMH101,,SR_Meas_QMS101,,TA_Meas_QMH101,,GenWind,,GenWind,
date,time,status,PA,status,PR,status,RH,status,SR,status,TA,status,DirAvg,status,SpdAvg,
2008-11-14, 00:00:05,VALID,1008.67,VALID,0,VALID,95.8176,VALID,0,VALID,23.6356,VALID,63,VALID,0,
2008-11-14, 00:01:05,VALID,1008.66,VALID,0,VALID,95.8023,VALID,0,VALID,23.5948,VALID,63,VALID,0,
2008-11-14, 00:02:05,VALID,1008.64,VALID,0,VALID,95.8252,VALID,0,VALID,23.6356,VALID,63,VALID,0,
2008-11-14, 00:03:05,VALID,1008.64,VALID,0,VALID,95.8252,VALID,0,VALID,23.6338,VALID,63,VALID,0,
2008-11-14, 00:04:05,VALID,1008.64,VALID,0,VALID,95.8481,VALID,0,VALID,23.6356,VALID,63,VALID,0,
2008-11-14, 00:05:05,VALID,1008.61,VALID,0,VALID,95.81,VALID,0,VALID,23.6356,VALID,63,VALID,0,
2008-11-14, 00:06:05,VALID,1008.64,VALID,0,VALID,95.8252,VALID,0,VALID,23.655,VALID,63,VALID,0,
2008-11-14, 00:07:05,VALID,1008.63,VALID,0,VALID,95.8328,VALID,0,VALID,23.6356,VALID,63,VALID,0,
2008-11-14, 00:08:05,VALID,1008.64,VALID,0,VALID,95.81,VALID,0.105969,VALID,23.6922,VALID,63,VALID,0,
2008-11-14, 00:09:05,VALID,1008.64,VALID,0,VALID,95.8328,VALID,0.105969,VALID,23.6727,VALID,63,VALID,0,
2008-11-14, 00:10:05,VALID,1008.61,VALID,0,VALID,95.8328,VALID,0.105969,VALID,23.6922,VALID,63,VALID,0,
2008-11-14, 00:11:05,VALID,1008.6,VALID,0,VALID,95.8405,VALID,0.105969,VALID,23.6709,VALID,63,VALID,0,
2008-11-14, 00:12:05,VALID,1008.6,VALID,0,VALID,95.8405,VALID,0.105969,VALID,23.6709,VALID,63,VALID,0,
2008-11-14, 00:13:05,VALID,1008.57,VALID,0,VALID,95.8481,VALID,0.105969,VALID,23.6727,VALID,63,VALID,0,
2008-11-14, 00:14:05,VALID,1008.56,VALID,0,VALID,95.8405,VALID,0.105969,VALID,23.6922,VALID,63,VALID,0,
2008-11-14, 00:15:05,VALID,1008.53,VALID,0,VALID,95.8252,VALID,0.105969,VALID,23.6727,VALID,63,VALID,0,
2008-11-14, 00:16:05,VALID,1008.51,VALID,0,VALID,95.8252,VALID,0.105969,VALID,23.6904,VALID,63,VALID,0,
2008-11-14, 00:17:05,VALID,1008.51,VALID,0,VALID,95.8481,VALID,0.105969,VALID,23.7099,VALID,63,VALID,0,
2008-11-14, 00:18:05,VALID,1008.49,VALID,0,VALID,95.8328,VALID,0.105969,VALID,23.7117,VALID,63,VALID,0,
2008-11-14, 00:19:05,VALID,1008.49,VALID,0,VALID,95.8252,VALID,0.105969,VALID,23.6727,VALID,63,VALID,0,
2008-11-14, 00:20:05,VALID,1008.52,VALID,0,VALID,95.8557,VALID,0.105969,VALID,23.6727,VALID,63,VALID,0,
2008-11-14, 00:21:05,VALID,1008.48,VALID,0,VALID,95.8405,VALID,0.105969,VALID,23.6532,VALID,63,VALID,0,
2008-11-14, 00:22:05,VALID,1008.51,VALID,0,VALID,95.8252,VALID,0.105969,VALID,23.6532,VALID,63,VALID,0,
2008-11-14, 00:23:05,VALID,1008.51,VALID,0,VALID,95.8405,VALID,0,VALID,23.6745,VALID,63,VALID,0,
2008-11-14, 00:24:05,VALID,1008.52,VALID,0,VALID,95.8252,VALID,0,VALID,23.694,VALID,142,VALID,0,
2008-11-14, 00:25:05,VALID,1008.54,VALID,0,VALID,95.8557,VALID,0,VALID,23.7525,VALID,160,VALID,0,
2008-11-14, 00:26:05,VALID,1008.54,VALID,0,VALID,95.8328,VALID,0,VALID,23.7117,VALID,184,VALID,0.284766,
2008-11-14, 00:27:05,VALID,1008.51,VALID,0,VALID,95.8557,VALID,0,VALID,23.733,VALID,184,VALID,0.0921875,
2008-11-14, 00:28:05,VALID,1008.49,VALID,0,VALID,95.8252,VALID,0,VALID,23.733,VALID,184,VALID,0.116406,
2008-11-14, 00:29:05,VALID,1008.48,VALID,0,VALID,95.8481,VALID,0,VALID,23.7312,VALID,184,VALID,0.05,
2008-11-14, 00:30:05,VALID,1008.46,VALID,0,VALID,95.8328,VALID,0,VALID,23.733,VALID,184,VALID,0,
2008-11-14, 00:31:05,VALID,1008.45,VALID,0,VALID,95.8405,VALID,0,VALID,23.7525,VALID,184,VALID,0.253125,
2008-11-14, 00:32:05,VALID,1008.44,VALID,0,VALID,95.8481,VALID,0,VALID,23.7312,VALID,184,VALID,0,
2008-11-14, 00:33:05,VALID,1008.42,VALID,0,VALID,95.8557,VALID,0,VALID,23.7312,VALID,184,VALID,0.0304688,
2008-11-14, 00:34:05,VALID,1008.42,VALID,0,VALID,95.8557,VALID,0,VALID,23.7525,VALID,262,VALID,0.352344,
2008-11-14, 00:35:05,VALID,1008.41,VALID,0,VALID,95.8328,VALID,0,VALID,23.7507,VALID,283,VALID,0.217187,
2008-11-14, 00:36:05,VALID,1008.41,VALID,0,VALID,95.8557,VALID,0.105969,VALID,23.7914,VALID,283,VALID,0.180859,
2008-11-14, 00:37:05,VALID,1008.39,VALID,0,VALID,95.8481,VALID,0,VALID,23.7914,VALID,286,VALID,0.248828,
2008-11-14, 00:38:05,VALID,1008.39,VALID,0,VALID,95.8252,VALID,0,VALID,23.7914,VALID,286,VALID,0.225391,
2008-11-14, 00:39:05,VALID,1008.35,VALID,0,VALID,95.8176,VALID,0,VALID,23.7914,VALID,286,VALID,0.251953,
2008-11-14, 00:40:05,VALID,1008.33,VALID,0,VALID,95.8481,VALID,0,VALID,23.7525,VALID,286,VALID,0.455078,
2008-11-14, 00:41:05,VALID,1008.32,VALID,0,VALID,95.8328,VALID,0,VALID,23.7525,VALID,286,VALID,0.358203,
2008-11-14, 00:42:05,VALID,1008.31,VALID,0,VALID,95.8405,VALID,0,VALID,23.7135,VALID,286,VALID,0.338281,
2008-11-14, 00:43:05,VALID,1008.3,VALID,0,VALID,95.8405,VALID,0,VALID,23.7117,VALID,286,VALID,0.207422,
2008-11-14, 00:44:05,VALID,1008.28,VALID,0,VALID,95.8328,VALID,0,VALID,23.694,VALID,286,VALID,0.09375,
2008-11-14, 00:45:05,VALID,1008.25,VALID,0,VALID,95.8176,VALID,0,VALID,23.7117,VALID,286,VALID,0.242188,
2008-11-14, 00:46:05,VALID,1008.24,VALID,0,VALID,95.8176,VALID,0,VALID,23.733,VALID,286,VALID,0.207422,
2008-11-14, 00:47:05,VALID,1008.22,VALID,0,VALID,95.8252,VALID,0,VALID,23.7135,VALID,286,VALID,0.254687,
2008-11-14, 00:48:05,VALID,1008.21,VALID,0,VALID,95.8176,VALID,0,VALID,23.7135,VALID,286,VALID,0.355078,
2008-11-14, 00:49:05,VALID,1008.19,VALID,0,VALID,95.8481,VALID,0,VALID,23.694,VALID,286,VALID,0.367578,
2008-11-14, 00:50:05,VALID,1008.2,VALID,0,VALID,95.8328,VALID,0,VALID,23.694,VALID,286,VALID,0.199609,
2008-11-14, 00:51:05,VALID,1008.18,VALID,0,VALID,95.8405,VALID,0,VALID,23.7135,VALID,286,VALID,0.160938,
2008-11-14, 00:52:05,VALID,1008.17,VALID,0,VALID,95.8252,VALID,0,VALID,23.694,VALID,286,VALID,0.196094,
2008-11-14, 00:53:05,VALID,1008.17,VALID,0,VALID,95.8405,VALID,0,VALID,23.6745,VALID,286,VALID,0.138672,
2008-11-14, 00:54:05,VALID,1008.14,VALID,0,VALID,95.8405,VALID,0,VALID,23.694,VALID,286,VALID,0.198047,
2008-11-14, 00:55:05,VALID,1008.08,VALID,0,VALID,95.8328,VALID,0,VALID,23.733,VALID,286,VALID,0.275781,
2008-11-14, 00:56:05,VALID,1008.08,VALID,0,VALID,95.8405,VALID,0,VALID,23.6745,VALID,286,VALID,0.260156,
2008-11-14, 00:57:05,VALID,1008.08,VALID,0,VALID,95.8405,VALID,0,VALID,23.655,VALID,286,VALID,0.371484,
2008-11-14, 00:58:05,VALID,1008.05,VALID,0,VALID,95.8481,VALID,0,VALID,23.694,VALID,286,VALID,0.226563,
2008-11-14, 00:59:05,VALID,1008.04,VALID,0,VALID,95.8252,VALID,0,VALID,23.6745,VALID,286,VALID,0.216797,
2008-11-14, 01:00:05,VALID,1008.02,VALID,0,VALID,95.8481,VALID,0,VALID,23.7135,VALID,286,VALID,0.167578,
2008-11-14, 01:01:05,VALID,1007.99,VALID,0,VALID,95.8405,VALID,0,VALID,23.655,VALID,286,VALID,0.194922,
2008-11-14, 01:02:05,VALID,1008,VALID,0,VALID,95.8405,VALID,0,VALID,23.6745,VALID,286,VALID,0,
2008-11-14, 01:03:05,VALID,1007.99,VALID,0,VALID,95.8557,VALID,0,VALID,23.6745,VALID,286,VALID,0,
2008-11-14, 01:04:05,VALID,1007.94,VALID,0,VALID,95.8481,VALID,0,VALID,23.6745,VALID,286,VALID,0,
2008-11-14, 01:05:05,VALID,1007.93,VALID,0,VALID,95.8481,VALID,0,VALID,23.694,VALID,286,VALID,0,
2008-11-14, 01:06:05,VALID,1007.9,VALID,0,VALID,95.8405,VALID,0,VALID,23.694,VALID,286,VALID,0,
2008-11-14, 01:07:05,VALID,1007.89,VALID,0,VALID,95.8481,VALID,0,VALID,23.7135,VALID,286,VALID,0,
2008-11-14, 01:08:05,VALID,1007.92,VALID,0,VALID,95.8633,VALID,0,VALID,23.6727,VALID,286,VALID,0,
2008-11-14, 01:09:05,VALID,1007.89,VALID,0,VALID,95.8557,VALID,0,VALID,23.7135,VALID,286,VALID,0,
2008-11-14, 01:10:05,VALID,1007.88,VALID,0,VALID,95.8786,VALID,0,VALID,23.7135,VALID,286,VALID,0,
2008-11-14, 01:11:05,VALID,1007.86,VALID,0,VALID,95.8481,VALID,0,VALID,23.7135,VALID,286,VALID,0,
2008-11-14, 01:12:05,VALID,1007.87,VALID,0,VALID,95.8557,VALID,0,VALID,23.694,VALID,286,VALID,0,
2008-11-14, 01:13:05,VALID,1007.87,VALID,0,VALID,95.8633,VALID,0,VALID,23.694,VALID,286,VALID,0,
2008-11-14, 01:14:05,VALID,1007.83,VALID,0,VALID,95.8481,VALID,0,VALID,23.733,VALID,286,VALID,0,
2008-11-14, 01:15:05,VALID,1007.81,VALID,0,VALID,95.8405,VALID,0,VALID,23.7135,VALID,286,VALID,0,
2008-11-14, 01:16:05,VALID,1007.79,VALID,0,VALID,95.8633,VALID,0,VALID,23.733,VALID,286,VALID,0,
2008-11-14, 01:17:05,VALID,1007.76,VALID,0,VALID,95.8557,VALID,0,VALID,23.7135,VALID,286,VALID,0.298438,
2008-11-14, 01:18:05,VALID,1007.77,VALID,0,VALID,95.8481,VALID,0,VALID,23.733,VALID,286,VALID,0.249609,
2008-11-14, 01:19:05,VALID,1007.78,VALID,0,VALID,95.8481,VALID,0,VALID,23.7135,VALID,286,VALID,0.345703,
2008-11-14, 01:20:05,VALID,1007.75,VALID,0,VALID,95.8405,VALID,0,VALID,23.7135,VALID,286,VALID,0.180859,
2008-11-14, 01:21:05,VALID,1007.76,VALID,0,VALID,95.8481,VALID,0,VALID,23.7135,VALID,286,VALID,0.250391,
2008-11-14, 01:22:05,VALID,1007.75,VALID,0,VALID,95.8557,VALID,0,VALID,23.7135,VALID,286,VALID,0.0976563,
2008-11-14, 01:23:05,VALID,1007.74,VALID,0,VALID,95.8328,VALID,0,VALID,23.694,VALID,286,VALID,0,
2008-11-14, 01:24:05,VALID,1007.76,VALID,0,VALID,95.8405,VALID,0,VALID,23.694,VALID,286,VALID,0.00429688,
2008-11-14, 01:25:05,VALID,1007.75,VALID,0,VALID,95.8557,VALID,0,VALID,23.694,VALID,286,VALID,0,
2008-11-14, 01:26:05,VALID,1007.76,VALID,0,VALID,95.8557,VALID,0,VALID,23.6727,VALID,286,VALID,0.084375,
2008-11-14, 01:27:05,VALID,1007.73,VALID,0,VALID,95.8557,VALID,0,VALID,23.733,VALID,286,VALID,0.114453,
2008-11-14, 01:28:05,VALID,1007.69,VALID,0,VALID,95.8557,VALID,0,VALID,23.7135,VALID,286,VALID,0.179297,
2008-11-14, 01:29:05,VALID,1007.7,VALID,0,VALID,95.8405,VALID,0,VALID,23.733,VALID,286,VALID,0,
2008-11-14, 01:30:05,VALID,1007.69,VALID,0,VALID,95.8328,VALID,0,VALID,23.733,VALID,286,VALID,0,
2008-11-14, 01:31:05,VALID,1007.65,VALID,0,VALID,95.8481,VALID,0,VALID,23.733,VALID,286,VALID,0.3125,
2008-11-14, 01:32:05,VALID,1007.66,VALID,0,VALID,95.8633,VALID,0,VALID,23.733,VALID,286,VALID,0,
2008-11-14, 01:33:05,VALID,1007.64,VALID,0,VALID,95.8481,VALID,0,VALID,23.733,VALID,286,VALID,0,
2008-11-14, 01:34:05,VALID,1007.63,VALID,0,VALID,95.8633,VALID,0,VALID,23.7525,VALID,286,VALID,0,
2008-11-14, 01:35:05,VALID,1007.62,VALID,0,VALID,95.8481,VALID,0,VALID,23.7525,VALID,286,VALID,0,
2008-11-14, 01:36:05,VALID,1007.62,VALID,0,VALID,95.8481,VALID,0,VALID,23.7525,VALID,286,VALID,0,
2008-11-14, 01:37:05,VALID,1007.58,VALID,0,VALID,95.8633,VALID,0,VALID,23.7525,VALID,286,VALID,0,
2008-11-14, 01:38:05,VALID,1007.58,VALID,0,VALID,95.8328,VALID,0,VALID,23.7525,VALID,286,VALID,0,
2008-11-14, 01:39:05,VALID,1007.56,VALID,0,VALID,95.8481,VALID,0,VALID,23.7525,VALID,286,VALID,0.195313,
2008-11-14, 01:40:05,VALID,1007.56,VALID,0,VALID,95.8481,VALID,0,VALID,23.733,VALID,286,VALID,0.275,
2008-11-14, 01:41:05,VALID,1007.56,VALID,0,VALID,95.8481,VALID,0,VALID,23.772,VALID,286,VALID,0.208203,
2008-11-14, 01:42:05,VALID,1007.55,VALID,0,VALID,95.8481,VALID,0,VALID,23.7525,VALID,286,VALID,0.230859,
2008-11-14, 01:43:05,VALID,1007.57,VALID,0,VALID,95.8405,VALID,0,VALID,23.7117,VALID,286,VALID,0.00546875,
2008-11-14, 01:44:05,VALID,1007.56,VALID,0,VALID,95.8557,VALID,0,VALID,23.733,VALID,286,VALID,0,
2008-11-14, 01:45:05,VALID,1007.57,VALID,0,VALID,95.8633,VALID,0,VALID,23.7135,VALID,286,VALID,0.117969,
2008-11-14, 01:46:05,VALID,1007.56,VALID,0,VALID,95.8405,VALID,0,VALID,23.7135,VALID,286,VALID,0.105078,
2008-11-14, 01:47:05,VALID,1007.53,VALID,0,VALID,95.8405,VALID,0,VALID,23.694,VALID,286,VALID,0.166016,
2008-11-14, 01:48:05,VALID,1007.53,VALID,0,VALID,95.8633,VALID,0,VALID,23.7135,VALID,286,VALID,0.117188,
2008-11-14, 01:49:05,VALID,1007.52,VALID,0,VALID,95.8633,VALID,0,VALID,23.694,VALID,286,VALID,0.0441406,
2008-11-14, 01:50:05,VALID,1007.51,VALID,0,VALID,95.8481,VALID,0,VALID,23.694,VALID,286,VALID,0.298438,
2008-11-14, 01:51:05,VALID,1007.48,VALID,0,VALID,95.8405,VALID,0,VALID,23.694,VALID,286,VALID,0.369141,
2008-11-14, 01:52:05,VALID,1007.5,VALID,0,VALID,95.8405,VALID,0,VALID,23.655,VALID,286,VALID,0.394531,
2008-11-14, 01:53:05,VALID,1007.48,VALID,0,VALID,95.8405,VALID,0,VALID,23.655,VALID,286,VALID,0.323828,
2008-11-14, 01:54:05,VALID,1007.5,VALID,0,VALID,95.8481,VALID,0,VALID,23.6356,VALID,286,VALID,0.252344,
2008-11-14, 01:55:05,VALID,1007.48,VALID,0,VALID,95.8252,VALID,0,VALID,23.6161,VALID,286,VALID,0.210547,
2008-11-14, 01:56:05,VALID,1007.5,VALID,0,VALID,95.8405,VALID,0,VALID,23.5966,VALID,286,VALID,0.185156,
2008-11-14, 01:57:05,VALID,1007.49,VALID,0,VALID,95.8481,VALID,0,VALID,23.6356,VALID,286,VALID,0.00859375,
2008-11-14, 01:58:05,VALID,1007.49,VALID,0,VALID,95.8633,VALID,0,VALID,23.5966,VALID,286,VALID,0.210547,
2008-11-14, 01:59:05,VALID,1007.48,VALID,0,VALID,95.871,VALID,0,VALID,23.5966,VALID,286,VALID,0.0175781,
2008-11-14, 02:00:05,VALID,1007.48,VALID,0,VALID,95.8557,VALID,0,VALID,23.5771,VALID,286,VALID,0,
2008-11-14, 02:01:05,VALID,1007.47,VALID,0,VALID,95.8481,VALID,0,VALID,23.5771,VALID,286,VALID,0.216406,
2008-11-14, 02:02:05,VALID,1007.49,VALID,0,VALID,95.8557,VALID,0,VALID,23.5381,VALID,286,VALID,0.0515625,
2008-11-14, 02:03:05,VALID,1007.46,VALID,0,VALID,95.8557,VALID,0,VALID,23.5381,VALID,286,VALID,0.0316406,
2008-11-14, 02:04:05,VALID,1007.46,VALID,0,VALID,95.8633,VALID,0,VALID,23.5186,VALID,286,VALID,0,
2008-11-14, 02:05:05,VALID,1007.49,VALID,0,VALID,95.871,VALID,0,VALID,23.5186,VALID,315,VALID,0.314063,
2008-11-14, 02:06:04,VALID,1007.49,VALID,0,VALID,95.8557,VALID,0,VALID,23.5186,VALID,315,VALID,0.295312,
2008-11-14, 02:07:04,VALID,1007.46,VALID,0,VALID,95.8633,VALID,0,VALID,23.5186,VALID,350,VALID,0.413281,
2008-11-14, 02:08:04,VALID,1007.44,VALID,0,VALID,95.8939,VALID,0,VALID,23.5186,VALID,23,VALID,0.3375,
2008-11-14, 02:09:04,VALID,1007.44,VALID,0,VALID,95.8786,VALID,0,VALID,23.5381,VALID,40,VALID,0.234375,
2008-11-14, 02:10:04,VALID,1007.42,VALID,0,VALID,95.8633,VALID,0,VALID,23.5186,VALID,40,VALID,0.263281,
2008-11-14, 02:11:04,VALID,1007.42,VALID,0,VALID,95.8786,VALID,0,VALID,23.5186,VALID,40,VALID,0.110156,
2008-11-14, 02:12:04,VALID,1007.4,VALID,0,VALID,95.8786,VALID,0,VALID,23.5381,VALID,40,VALID,0.141797,
2008-11-14, 02:13:04,VALID,1007.4,VALID,0,VALID,95.8481,VALID,0,VALID,23.5594,VALID,40,VALID,0.2375,
2008-11-14, 02:14:04,VALID,1007.39,VALID,0,VALID,95.871,VALID,0,VALID,23.5381,VALID,40,VALID,0.108594,
2008-11-14, 02:15:04,VALID,1007.38,VALID,0,VALID,95.8786,VALID,0,VALID,23.5381,VALID,40,VALID,0.0945313,
2008-11-14, 02:16:04,VALID,1007.37,VALID,0,VALID,95.871,VALID,0,VALID,23.5186,VALID,40,VALID,0,
2008-11-14, 02:17:04,VALID,1007.37,VALID,0,VALID,95.8862,VALID,0,VALID,23.5186,VALID,40,VALID,0,
2008-11-14, 02:18:04,VALID,1007.37,VALID,0,VALID,95.8633,VALID,0,VALID,23.5186,VALID,40,VALID,0,
2008-11-14, 02:19:04,VALID,1007.4,VALID,0,VALID,95.8862,VALID,0,VALID,23.5186,VALID,40,VALID,0,
2008-11-14, 02:20:04,VALID,1007.36,VALID,0,VALID,95.8786,VALID,0,VALID,23.5186,VALID,40,VALID,0,
2008-11-14, 02:21:04,VALID,1007.4,VALID,0,VALID,95.9015,VALID,0,VALID,23.4992,VALID,40,VALID,0.196094,
2008-11-14, 02:22:04,VALID,1007.4,VALID,0,VALID,95.9091,VALID,0,VALID,23.5399,VALID,40,VALID,0,
2008-11-14, 02:23:04,VALID,1007.43,VALID,0,VALID,95.9015,VALID,0,VALID,23.5186,VALID,40,VALID,0,
2008-11-14, 02:24:04,VALID,1007.45,VALID,0,VALID,95.871,VALID,0,VALID,23.5186,VALID,33,VALID,0.241406,
2008-11-14, 02:25:04,VALID,1007.46,VALID,0,VALID,95.9015,VALID,0,VALID,23.5204,VALID,329,VALID,0.308984,
2008-11-14, 02:26:04,VALID,1007.44,VALID,0,VALID,95.8786,VALID,0,VALID,23.5381,VALID,291,VALID,0.462891,
2008-11-14, 02:27:04,VALID,1007.46,VALID,0,VALID,95.9015,VALID,0,VALID,23.5576,VALID,291,VALID,0.20625,
2008-11-14, 02:28:04,VALID,1007.44,VALID,0,VALID,95.9091,VALID,0,VALID,23.5594,VALID,291,VALID,0.316406,
2008-11-14, 02:29:04,VALID,1007.43,VALID,0,VALID,95.8786,VALID,0,VALID,23.5576,VALID,291,VALID,0,
2008-11-14, 02:30:04,VALID,1007.46,VALID,0,VALID,95.8786,VALID,0,VALID,23.5594,VALID,291,VALID,0.176172,
2008-11-14, 02:31:04,VALID,1007.46,VALID,0,VALID,95.8786,VALID,0,VALID,23.5381,VALID,291,VALID,0.215234,
2008-11-14, 02:32:04,VALID,1007.47,VALID,0,VALID,95.871,VALID,0,VALID,23.5594,VALID,291,VALID,0.194922,
2008-11-14, 02:33:04,VALID,1007.51,VALID,0,VALID,95.8862,VALID,0,VALID,23.5381,VALID,291,VALID,0,
2008-11-14, 02:34:04,VALID,1007.48,VALID,0,VALID,95.8862,VALID,0,VALID,23.5399,VALID,291,VALID,0.396094,
2008-11-14, 02:35:04,VALID,1007.52,VALID,0,VALID,95.8862,VALID,0,VALID,23.5399,VALID,291,VALID,0.230078,
2008-11-14, 02:36:04,VALID,1007.5,VALID,0,VALID,95.9091,VALID,0,VALID,23.5186,VALID,291,VALID,0.0078125,
2008-11-14, 02:37:04,VALID,1007.48,VALID,0,VALID,95.8862,VALID,0,VALID,23.5381,VALID,302,VALID,0.455859,
2008-11-14, 02:38:04,VALID,1007.47,VALID,0,VALID,95.9167,VALID,0,VALID,23.5966,VALID,346,VALID,0.736719,
2008-11-14, 02:39:04,VALID,1007.49,VALID,0,VALID,95.8862,VALID,0,VALID,23.6161,VALID,344,VALID,0.302734,
2008-11-14, 02:40:04,VALID,1007.47,VALID,0,VALID,95.9015,VALID,0,VALID,23.6161,VALID,319,VALID,0.312109,
2008-11-14, 02:41:04,VALID,1007.46,VALID,0,VALID,95.8939,VALID,0,VALID,23.6161,VALID,344,VALID,0.458203,
2008-11-14, 02:42:04,VALID,1007.47,VALID,0,VALID,95.8786,VALID,0,VALID,23.6161,VALID,360,VALID,0.679297,
2008-11-14, 02:43:04,VALID,1007.46,VALID,0,VALID,95.8862,VALID,0,VALID,23.6143,VALID,340,VALID,0.212109,
2008-11-14, 02:44:04,VALID,1007.43,VALID,0,VALID,95.8786,VALID,0,VALID,23.6161,VALID,37,VALID,0.7125,
2008-11-14, 02:45:04,VALID,1007.41,VALID,0,VALID,95.8633,VALID,0,VALID,23.655,VALID,324,VALID,1.27266,
2008-11-14, 02:46:04,VALID,1007.41,VALID,0,VALID,95.8557,VALID,0,VALID,23.6745,VALID,299,VALID,0.464844,
2008-11-14, 02:47:04,VALID,1007.42,VALID,0,VALID,95.8481,VALID,0,VALID,23.7153,VALID,342,VALID,0.162109,
2008-11-14, 02:48:04,VALID,1007.44,VALID,0,VALID,95.8405,VALID,0,VALID,23.7348,VALID,329,VALID,0.337109,
2008-11-14, 02:49:04,VALID,1007.45,VALID,0,VALID,95.8405,VALID,0,VALID,23.7135,VALID,345,VALID,0.783984,
2008-11-14, 02:50:04,VALID,1007.44,VALID,0,VALID,95.8176,VALID,0,VALID,23.733,VALID,294,VALID,0.185937,
2008-11-14, 02:51:04,VALID,1007.42,VALID,0,VALID,95.8252,VALID,0,VALID,23.733,VALID,10,VALID,0.242969,
2008-11-14, 02:52:04,VALID,1007.38,VALID,0,VALID,95.8176,VALID,0,VALID,23.733,VALID,14,VALID,0.171875,
2008-11-14, 02:53:04,VALID,1007.4,VALID,0,VALID,95.8252,VALID,0.105969,VALID,23.772,VALID,310,VALID,0.564453,
2008-11-14, 02:54:04,VALID,1007.42,VALID,0,VALID,95.7871,VALID,0.105969,VALID,23.7701,VALID,326,VALID,0.389453,
2008-11-14, 02:55:04,VALID,1007.42,VALID,0,VALID,95.7795,VALID,0.105969,VALID,23.7507,VALID,342,VALID,0.415625,
2008-11-14, 02:56:04,VALID,1007.39,VALID,0,VALID,95.7642,VALID,0.105969,VALID,23.7312,VALID,1,VALID,0.440625,
2008-11-14, 02:57:04,VALID,1007.38,VALID,0,VALID,95.7566,VALID,0.105969,VALID,23.7312,VALID,328,VALID,0.565625,
2008-11-14, 02:58:04,VALID,1007.34,VALID,0,VALID,95.7642,VALID,0.105969,VALID,23.7312,VALID,349,VALID,0.703125,
2008-11-14, 02:59:04,VALID,1007.31,VALID,0,VALID,95.7185,VALID,0.105969,VALID,23.7312,VALID,318,VALID,0.400781,
2008-11-14, 03:00:04,VALID,1007.33,VALID,0,VALID,95.7185,VALID,0.105969,VALID,23.7525,VALID,336,VALID,0.633203,
2008-11-14, 03:01:04,VALID,1007.33,VALID,0,VALID,95.6956,VALID,0.105969,VALID,23.7312,VALID,314,VALID,0.491797,
2008-11-14, 03:02:04,VALID,1007.29,VALID,0,VALID,95.6803,VALID,0.105969,VALID,23.7312,VALID,289,VALID,0.369141,
2008-11-14, 03:03:04,VALID,1007.24,VALID,0,VALID,95.6803,VALID,0.105969,VALID,23.7312,VALID,332,VALID,0.604297,
2008-11-14, 03:04:04,VALID,1007.22,VALID,0,VALID,95.6651,VALID,0.105969,VALID,23.6727,VALID,348,VALID,0.558984,
2008-11-14, 03:05:04,VALID,1007.22,VALID,0,VALID,95.6574,VALID,0.105969,VALID,23.6709,VALID,9,VALID,0.441406,
2008-11-14, 03:06:04,VALID,1007.21,VALID,0,VALID,95.6422,VALID,0.105969,VALID,23.6727,VALID,15,VALID,0.239063,
2008-11-14, 03:07:04,VALID,1007.19,VALID,0,VALID,95.6041,VALID,0.105969,VALID,23.6727,VALID,314,VALID,0.493359,
2008-11-14, 03:08:04,VALID,1007.21,VALID,0,VALID,95.6041,VALID,0,VALID,23.6745,VALID,300,VALID,0.414453,
2008-11-14, 03:09:04,VALID,1007.19,VALID,0,VALID,95.5736,VALID,0,VALID,23.655,VALID,316,VALID,0.658203,
2008-11-14, 03:10:04,VALID,1007.18,VALID,0,VALID,95.5736,VALID,0,VALID,23.6745,VALID,318,VALID,0.139062,
2008-11-14, 03:11:04,VALID,1007.18,VALID,0,VALID,95.5583,VALID,0,VALID,23.694,VALID,3,VALID,0.644922,
2008-11-14, 03:12:04,VALID,1007.16,VALID,0,VALID,95.5431,VALID,0,VALID,23.655,VALID,20,VALID,0.334766,
2008-11-14, 03:13:04,VALID,1007.19,VALID,0,VALID,95.5126,VALID,0,VALID,23.6161,VALID,22,VALID,0.203516,
2008-11-14, 03:14:04,VALID,1007.17,VALID,0,VALID,95.5202,VALID,0,VALID,23.655,VALID,22,VALID,0,
2008-11-14, 03:15:04,VALID,1007.19,VALID,0,VALID,95.4897,VALID,0,VALID,23.6356,VALID,22,VALID,0.00429688,
2008-11-14, 03:16:04,VALID,1007.17,VALID,0,VALID,95.4821,VALID,0,VALID,23.6161,VALID,331,VALID,0.760938,
2008-11-14, 03:17:04,VALID,1007.19,VALID,0,VALID,95.4516,VALID,0,VALID,23.5771,VALID,318,VALID,0.191016,
2008-11-14, 03:18:04,VALID,1007.22,VALID,0,VALID,95.4821,VALID,0,VALID,23.6161,VALID,314,VALID,0,
2008-11-14, 03:19:04,VALID,1007.23,VALID,0,VALID,95.4363,VALID,0,VALID,23.5966,VALID,302,VALID,0.396484,
2008-11-14, 03:20:04,VALID,1007.21,VALID,0,VALID,95.3753,VALID,0,VALID,23.5966,VALID,276,VALID,1.15039,
2008-11-14, 03:21:04,VALID,1007.22,VALID,0,VALID,95.3677,VALID,0,VALID,23.6356,VALID,302,VALID,0.469922,
2008-11-14, 03:22:04,VALID,1007.2,VALID,0,VALID,95.3372,VALID,0,VALID,23.6161,VALID,296,VALID,0.557031,
2008-11-14, 03:23:04,VALID,1007.17,VALID,0,VALID,95.3219,VALID,0,VALID,23.6356,VALID,301,VALID,0.313281,
2008-11-14, 03:24:04,VALID,1007.16,VALID,0,VALID,95.2685,VALID,0,VALID,23.5948,VALID,300,VALID,0.325391,
2008-11-14, 03:25:04,VALID,1007.18,VALID,0,VALID,95.2838,VALID,0,VALID,23.6356,VALID,300,VALID,0.279297,
2008-11-14, 03:26:04,VALID,1007.15,VALID,0,VALID,95.2304,VALID,0,VALID,23.6161,VALID,303,VALID,0.876172,
2008-11-14, 03:27:04,VALID,1007.14,VALID,0,VALID,95.2075,VALID,0,VALID,23.6161,VALID,335,VALID,0.666797,
2008-11-14, 03:28:04,VALID,1007.13,VALID,0,VALID,95.1694,VALID,0,VALID,23.6161,VALID,335,VALID,0.296094,
2008-11-14, 03:29:04,VALID,1007.12,VALID,0,VALID,95.177,VALID,0,VALID,23.6161,VALID,351,VALID,0.516016,
2008-11-14, 03:30:04,VALID,1007.11,VALID,0,VALID,95.1465,VALID,0,VALID,23.5966,VALID,316,VALID,0.232031,
2008-11-14, 03:31:04,VALID,1007.15,VALID,0,VALID,95.1694,VALID,0,VALID,23.5558,VALID,266,VALID,0.202734,
2008-11-14, 03:32:04,VALID,1007.16,VALID,0,VALID,95.1389,VALID,0,VALID,23.5771,VALID,278,VALID,0.430078,
2008-11-14, 03:33:04,VALID,1007.13,VALID,0,VALID,95.1313,VALID,0,VALID,23.5966,VALID,294,VALID,0.451172,
2008-11-14, 03:34:04,VALID,1007.13,VALID,0,VALID,95.1313,VALID,0,VALID,23.5771,VALID,335,VALID,0.369531,
2008-11-14, 03:35:04,VALID,1007.15,VALID,0,VALID,95.1465,VALID,0,VALID,23.5753,VALID,334,VALID,0.198047,
2008-11-14, 03:36:04,VALID,1007.14,VALID,0,VALID,95.1542,VALID,0,VALID,23.5771,VALID,356,VALID,0.611719,
2008-11-14, 03:37:04,VALID,1007.15,VALID,0,VALID,95.1694,VALID,0,VALID,23.5363,VALID,339,VALID,0.354688,
2008-11-14, 03:38:04,VALID,1007.13,VALID,0,VALID,95.2152,VALID,0,VALID,23.5576,VALID,339,VALID,0.149219,
2008-11-14, 03:39:04,VALID,1007.14,VALID,0,VALID,95.2152,VALID,0,VALID,23.5576,VALID,339,VALID,0.0140625,
2008-11-14, 03:40:04,VALID,1007.13,VALID,0,VALID,95.238,VALID,0,VALID,23.5363,VALID,339,VALID,0.0121094,
2008-11-14, 03:41:04,VALID,1007.14,VALID,0,VALID,95.238,VALID,0,VALID,23.5381,VALID,328,VALID,0.189844,
2008-11-14, 03:42:04,VALID,1007.15,VALID,0,VALID,95.2609,VALID,0,VALID,23.5576,VALID,330,VALID,0.516797,
2008-11-14, 03:43:04,VALID,1007.18,VALID,0,VALID,95.2838,VALID,0,VALID,23.5576,VALID,2,VALID,0.535156,
2008-11-14, 03:44:04,VALID,1007.18,VALID,0,VALID,95.3067,VALID,0,VALID,23.5169,VALID,339,VALID,0.225391,
2008-11-14, 03:45:04,VALID,1007.22,VALID,0,VALID,95.2914,VALID,0,VALID,23.5381,VALID,285,VALID,0.352344,
2008-11-14, 03:46:04,VALID,1007.21,VALID,0,VALID,95.3372,VALID,0,VALID,23.5576,VALID,338,VALID,0.196484,
2008-11-14, 03:47:04,VALID,1007.2,VALID,0,VALID,95.299,VALID,0,VALID,23.5186,VALID,317,VALID,0.866797,